Location: Unspecified
(52.4292°N, 19.3359°E)
Time: 01:14:13
(UTC+02:00)

Altair - Pass Details

Date: 28 May 2024
Orbit: 1502 x 1682 km, 47.2° (Epoch: 20 June)

Event Time Altitude Azimuth Distance (km) Brightness Sun altitude
Rises 13:51:30 0° 278° (W) 4,880 10.3 56.2°
Reaches altitude 10° 13:54:42 10° 275° (W) 3,910 10.0 56.0°
Maximum altitude 14:04:22 55° 202° (SSW) 1,967 10.8 55.1°
Drops below altitude 10° 14:14:06 10° 128° (SE) 3,935 9.8 54.2°
Sets 14:17:20 0° 125° (SE) 4,914 10.1 53.9°
